FENGYUN 1C DEB

Satellite information

Favourite Embed

Satellite Type and Status

DEBRISIN ORBIT

Key statistics

Satellite FENGYUN 1C DEB at a glance.

Uptime

9715

Days in orbit

Revolutions

≈ 14.2

Per day

Orbit

SSO

Sun Synchronous Orbit

Inclination

98.9

Latest

Satellite identification and parameters

Extended collection of information and parameters for FENGYUN 1C DEB.

Object identification

Identified? True

Debris? True

Object name: FENGYUN 1C DEB

International designator: 1999-025BVQ

Object number (NORAD): 31476

Object ID (CCSDS): 31476

Country: PEOPLES REPUBLIC OF CHINA (PRC)

Current information (Y/N): Y

RCS size: SMALL

Orbital parameters

Period: 101.258 minutes

Inclination: 98.8964 deg

SMA: 7196.375 km

Apoapsis: 856.576 km

Periapsis: 779.904 km

RAAN: 60.6509 deg

Eccentricy: 0.00532711

Argument of periapsis: 170.8823 deg

Mean anomaly: 189.3334 deg

Mean motion: 14.2210641 rev/day

Mean motion (dot): 0.00005363 rev/day2

B* drag term: 0.0024062501 1/REarth

Two-line elements (TLE)

Creation date: Dec. 13, 2025, 5:47 p.m.

Reference frame: TEME

Reference center: EARTH

Epoch: Dec. 13, 2025, 3:34 a.m. UTC

TLE line 0: 0 FENGYUN 1C DEB

TLE line 1: 1 31476U 99025BVQ 25347.14899158 .00005363 00000-0 24063-2 0 9996

TLE line 2: 2 31476 98.8964 60.6509 0053271 170.8823 189.3334 14.22106410957058

Live tracking on map

Real-time ground track for satellite FENGYUN 1C DEB.

In-orbit conjunctions

A list of the most updated potential collisions computed for object FENGYUN 1C DEB.

Target Orbit TCA Probability of collision Miss distance Type
FALCONSAT SSO 2025-12-10 13:59:13 0.0007089656 444.0 (m) PAYLOAD

Associated space launch

Chinese polar orbiting meteorological satellite

FENGYUN 1C DEB was lifted into orbit during the mission ‘Long March 4B | Feng Yun 1C’, on board a Long March 4B space rocket.

The launch took place on May 10, 1999, 1:33 a.m. from Launch Complex 7.

For more information about the launch, click the button.

Launch to space Long March 4B | Feng Yun 1C
Long March 4B | Feng Yun 1C

Agency: N/A

Status: Launch Successful

Launch date: May 10, 1999, 1:33 a.m. UTC

Rocket: Long March 4B

Launch pad: Launch Complex 7

Location: Taiyuan Satellite Launch Center, People's Republic of China

...

Latest news about this satellite

There are no fresh news available about this satellite. Check back as we update our databases every day.


Newsletter sign-up

Weekly statistics, charts and insights to help you stay on top of the space industry.